| time (UTC) | temp F | wind direction | speed MPH | gust MPH | rain 1hr in | rain 24hr in | rain mn in | humidity % | barometer mb |
| 20260509154039 | 59 | 180 | 3.0 | 5.0 | 0.00 | 0.00 | 0.00 | 75 | 1010.3 |
| 20260509153019 | 59 | 180 | 2.0 | 4.0 | 0.00 | 0.00 | 0.00 | 75 | 1009.9 |
| 20260509152039 | 59 | 90 | 2.0 | 5.0 | 0.00 | 0.00 | 0.00 | 72 | 1009.8 |
| 20260509151019 | 59 | 135 | 2.0 | 6.0 | 0.00 | 0.00 | 0.00 | 72 | 1009.7 |
| 20260509150019 | 59 | 135 | 3.0 | 5.0 | 0.00 | 0.00 | 0.00 | 73 | 1009.9 |
| 20260509145019 | 59 | 90 | 3.0 | 6.0 | 0.00 | 0.00 | 0.00 | 73 | 1010.1 |
| 20260509144019 | 59 | 90 | 6.0 | 10.0 | 0.00 | 0.00 | 0.00 | 73 | 1010.1 |
| 20260509143019 | 59 | 68 | 8.0 | 12.0 | 0.00 | 0.00 | 0.00 | 71 | 1010.3 |
| 20260509142019 | 59 | 90 | 5.0 | 14.0 | 0.00 | 0.00 | 0.00 | 69 | 1010.5 |
| 20260509141019 | 59 | 338 | 5.0 | 11.0 | 0.00 | 0.00 | 0.00 | 70 | 1010.7 |
| 20260509140019 | 59 | 315 | 5.0 | 8.0 | 0.00 | 0.00 | 0.00 | 72 | 1010.9 |
| 20260509135019 | 59 | 225 | 3.0 | 6.0 | 0.00 | 0.00 | 0.00 | 72 | 1011.4 |
| 20260509134019 | 59 | 203 | 4.0 | 6.0 | 0.00 | 0.00 | 0.00 | 72 | 1011.8 |
| 20260509133019 | 59 | 203 | 6.0 | 10.0 | 0.00 | 0.00 | 0.00 | 73 | 1011.8 |
| 20260509132019 | 59 | 203 | 5.0 | 10.0 | 0.00 | 0.00 | 0.00 | 72 | 1011.7 |
| 20260509131018 | 60 | 180 | 6.0 | 10.0 | 0.00 | 0.00 | 0.00 | 71 | 1011.5 |
| 20260509130019 | 60 | 158 | 5.0 | 9.0 | 0.00 | 0.00 | 0.00 | 69 | 1011.3 |
| 20260509125018 | 60 | 135 | 6.0 | 13.0 | 0.00 | 0.00 | 0.00 | 69 | 1011.3 |
| 20260509124018 | 61 | 135 | 6.0 | 13.0 | 0.00 | 0.00 | 0.00 | 67 | 1011.7 |
| 20260509123018 | 61 | 135 | 5.0 | 11.0 | 0.00 | 0.00 | 0.00 | 68 | 1011.8 |
| 20260509122018 | 61 | 158 | 6.0 | 11.0 | 0.00 | 0.00 | 0.00 | 69 | 1012.0 |
| 20260509121018 | 61 | 158 | 7.0 | 15.0 | 0.00 | 0.00 | 0.00 | 69 | 1012.2 |
| 20260509120018 | 61 | 180 | 7.0 | 15.0 | 0.00 | 0.00 | 0.00 | 69 | 1012.3 |
| 20260509115018 | 62 | 180 | 5.0 | 10.0 | 0.00 | 0.00 | 0.00 | 67 | 1012.3 |
| 20260509114018 | 62 | 158 | 5.0 | 9.0 | 0.00 | 0.00 | 0.00 | 67 | 1012.4 |
| 20260509113018 | 62 | 180 | 5.0 | 9.0 | 0.00 | 0.00 | 0.00 | 66 | 1012.5 |
| 20260509112038 | 62 | 158 | 4.0 | 9.0 | 0.00 | 0.00 | 0.00 | 65 | 1012.4 |
| 20260509111018 | 63 | 270 | 2.0 | 6.0 | 0.00 | 0.00 | 0.00 | 64 | 1012.2 |
| 20260509110018 | 63 | 113 | 2.0 | 4.0 | 0.00 | 0.00 | 0.00 | 63 | 1012.4 |
| 20260509105018 | 62 | 158 | 2.0 | 6.0 | 0.00 | 0.00 | 0.00 | 65 | 1012.5 |
| 20260509104038 | 62 | 135 | 3.0 | 7.0 | 0.00 | 0.00 | 0.00 | 64 | 1012.9 |
| 20260509103038 | 62 | 180 | 2.0 | 6.0 | 0.00 | 0.00 | 0.00 | 65 | 1012.7 |
| 20260509102018 | 62 | 180 | 3.0 | 7.0 | 0.00 | 0.00 | 0.00 | 66 | 1012.9 |
| 20260509101018 | 62 | 180 | 5.0 | 8.0 | 0.00 | 0.00 | 0.00 | 65 | 1012.8 |
| 20260509100018 | 62 | 180 | 4.0 | 7.0 | 0.00 | 0.00 | 0.00 | 65 | 1012.7 |
| 20260509095018 | 63 | 180 | 3.0 | 6.0 | 0.00 | 0.00 | 0.00 | 64 | 1012.9 |
| 20260509094018 | 62 | 158 | 2.0 | 5.0 | 0.00 | 0.00 | 0.00 | 65 | 1012.5 |
| 20260509093018 | 61 | 158 | 3.0 | 6.0 | 0.00 | 0.00 | 0.00 | 68 | 1012.5 |
| 20260509092018 | 60 | 180 | 3.0 | 7.0 | 0.00 | 0.00 | 0.00 | 67 | 1012.3 |
| 20260509091018 | 60 | 158 | 3.0 | 5.0 | 0.00 | 0.00 | 0.00 | 70 | 1012.7 |
| 20260509090018 | 60 | 68 | 3.0 | 8.0 | 0.00 | 0.00 | 0.00 | 62 | 1012.6 |
| 20260509085018 | 60 | 113 | 3.0 | 6.0 | 0.00 | 0.00 | 0.00 | 61 | 1012.5 |
| 20260509084018 | 60 | 90 | 3.0 | 7.0 | 0.00 | 0.00 | 0.00 | 65 | 1012.3 |
| 20260509083018 | 59 | 90 | 5.0 | 9.0 | 0.00 | 0.00 | 0.00 | 67 | 1012.2 |
| 20260509082018 | 59 | 90 | 5.0 | 10.0 | 0.00 | 0.00 | 0.00 | 67 | 1012.2 |
| 20260509081018 | 58 | 90 | 7.0 | 11.0 | 0.00 | 0.00 | 0.00 | 69 | 1012.2 |
| 20260509080018 | 58 | 90 | 7.0 | 13.0 | 0.00 | 0.00 | 0.00 | 71 | 1012.1 |
| 20260509075017 | 58 | 68 | 5.0 | 10.0 | 0.00 | 0.00 | 0.00 | 71 | 1012.5 |
| 20260509074018 | 57 | 45 | 8.0 | 12.0 | 0.00 | 0.00 | 0.00 | 72 | 1012.4 |
| 20260509073038 | 57 | 45 | 10.0 | 14.0 | 0.00 | 0.00 | 0.00 | 73 | 1012.2 |
| 20260509072038 | 56 | 45 | 9.0 | 14.0 | 0.00 | 0.00 | 0.00 | 76 | 1012.2 |
| 20260509071017 | 54 | 45 | 10.0 | 14.0 | 0.00 | 0.00 | 0.00 | 78 | 1012.3 |
| 20260509070038 | 54 | 23 | 9.0 | 15.0 | 0.00 | 0.00 | 0.00 | 79 | 1012.1 |
| 20260509065037 | 53 | 45 | 8.0 | 14.0 | 0.00 | 0.00 | 0.00 | 81 | 1012.5 |
| 20260509064018 | 52 | 23 | 8.0 | 13.0 | 0.00 | 0.00 | 0.00 | 82 | 1012.6 |
| 20260509063017 | 52 | 23 | 8.0 | 12.0 | 0.00 | 0.00 | 0.00 | 82 | 1012.8 |
| 20260509062017 | 51 | 45 | 6.0 | 10.0 | 0.00 | 0.00 | 0.00 | 83 | 1013.0 |
| 20260509061018 | 51 | 45 | 6.0 | 9.0 | 0.00 | 0.00 | 0.00 | 83 | 1013.0 |
| 20260509060017 | 51 | 45 | 4.0 | 8.0 | 0.00 | 0.00 | 0.00 | 83 | 1013.2 |
| 20260509055019 | 51 | 45 | 2.0 | 6.0 | 0.00 | 0.00 | 0.00 | 83 | 1013.4 |
| 20260509054019 | 50 | 315 | 1.0 | 2.0 | 0.00 | 0.00 | 0.00 | 83 | 1013.4 |
| 20260509053019 | 50 | 315 | 3.0 | 6.0 | 0.00 | 0.00 | 0.00 | 83 | 1013.3 |
| 20260509052019 | 50 | 338 | 2.0 | 7.0 | 0.00 | 0.00 | 0.00 | 83 | 1013.1 |
| 20260509051019 | 50 | 45 | 5.0 | 9.0 | 0.00 | 0.00 | 0.00 | 83 | 1012.9 |
| 20260509050019 | 51 | 45 | 5.0 | 9.0 | 0.00 | 0.00 | 0.00 | 81 | 1012.7 |
| 20260509045039 | 51 | 45 | 7.0 | 13.0 | 0.00 | 0.00 | 0.00 | 81 | 1012.7 |
| 20260509044019 | 51 | 45 | 7.0 | 11.0 | 0.00 | 0.00 | 0.00 | 82 | 1012.7 |
| 20260509043019 | 51 | 45 | 7.0 | 10.0 | 0.00 | 0.00 | 0.00 | 81 | 1012.7 |
| 20260509042019 | 51 | 45 | 7.0 | 13.0 | 0.00 | 0.00 | 0.00 | 81 | 1012.7 |
| 20260509041019 | 52 | 45 | 6.0 | 10.0 | 0.00 | 0.00 | 0.00 | 80 | 1012.8 |
| 20260509040039 | 52 | 45 | 6.0 | 10.0 | 0.00 | 0.00 | 0.00 | 79 | 1013.0 |
| 20260509035019 | 52 | 23 | 6.0 | 12.0 | 0.00 | 0.00 | 0.00 | 79 | 1013.1 |
| 20260509034019 | 52 | 45 | 6.0 | 11.0 | 0.00 | 0.00 | 0.00 | 78 | 1013.1 |
| 20260509033019 | 52 | 23 | 6.0 | 10.0 | 0.00 | 0.00 | 0.00 | 77 | 1013.3 |
| 20260509032019 | 53 | 23 | 6.0 | 10.0 | 0.00 | 0.00 | 0.00 | 80 | 1013.5 |
| 20260509031019 | 52 | 0 | 7.0 | 11.0 | 0.00 | 0.00 | 0.00 | 78 | 1013.3 |
| 20260509030019 | 52 | 0 | 7.0 | 10.0 | 0.00 | 0.00 | 0.00 | 79 | 1013.3 |
| 20260509025019 | 52 | 0 | 6.0 | 10.0 | 0.00 | 0.00 | 0.00 | 80 | 1013.6 |
| 20260509024019 | 52 | 0 | 5.0 | 6.0 | 0.00 | 0.00 | 0.00 | 81 | 1013.5 |
| 20260509023019 | 52 | 23 | 4.0 | 5.0 | 0.00 | 0.00 | 0.00 | 87 | 1013.5 |
| 20260509022019 | 53 | 90 | 2.0 | 4.0 | 0.00 | 0.00 | 0.00 | 89 | 1013.7 |
| 20260509021019 | 53 | 90 | 1.0 | 3.0 | 0.00 | 0.00 | 0.00 | 89 | 1013.8 |
| 20260509020019 | 53 | 0.0 | 2.0 | 0.00 | 0.00 | 0.00 | 88 | 1014.1 | |
| 20260509015019 | 53 | 0.0 | 2.0 | 0.00 | 0.00 | 0.00 | 88 | 1014.2 | |
| 20260509014018 | 53 | 0.0 | 2.0 | 0.00 | 0.00 | 0.00 | 87 | 1014.3 | |
| 20260509013018 | 53 | 0.0 | 2.0 | 0.00 | 0.00 | 0.00 | 87 | 1014.2 | |
| 20260509012039 | 53 | 135 | 1.0 | 2.0 | 0.00 | 0.00 | 0.00 | 87 | 1014.2 |
| 20260509011018 | 53 | 135 | 1.0 | 3.0 | 0.00 | 0.00 | 0.00 | 88 | 1014.4 |
| 20260509010019 | 53 | 0.0 | 3.0 | 0.00 | 0.00 | 0.00 | 87 | 1014.4 | |
| 20260509005018 | 53 | 0.0 | 0.0 | 0.00 | 0.00 | 0.00 | 87 | 1014.6 | |
| 20260509004018 | 53 | 0.0 | 2.0 | 0.00 | 0.00 | 0.00 | 87 | 1014.7 | |
| 20260509003018 | 53 | 0.0 | 2.0 | 0.00 | 0.00 | 0.00 | 87 | 1014.8 | |
| 20260509002018 | 53 | 158 | 1.0 | 2.0 | 0.00 | 0.00 | 0.00 | 86 | 1014.9 |
| 20260509001018 | 53 | 158 | 1.0 | 2.0 | 0.00 | 0.00 | 0.00 | 86 | 1014.8 |
| 20260509000019 | 53 | 0.0 | 2.0 | 0.00 | 0.00 | 0.00 | 87 | 1014.8 | |
| 20260508235019 | 53 | 180 | 2.0 | 3.0 | 0.00 | 0.00 | 0.00 | 86 | 1014.7 |
| 20260508233019 | 54 | 0.0 | 2.0 | 0.00 | 0.00 | 0.00 | 85 | 1014.7 | |
| 20260508232018 | 54 | 225 | 1.0 | 2.0 | 0.00 | 0.00 | 0.00 | 84 | 1014.7 |
| 20260508231018 | 54 | 0.0 | 2.0 | 0.00 | 0.00 | 0.00 | 84 | 1014.7 | |
| 20260508230018 | 54 | 135 | 1.0 | 2.0 | 0.00 | 0.00 | 0.00 | 84 | 1014.6 |
| 20260508225019 | 54 | 158 | 1.0 | 3.0 | 0.00 | 0.00 | 0.00 | 84 | 1014.7 |
| 20260508224019 | 54 | 158 | 1.0 | 2.0 | 0.00 | 0.00 | 0.00 | 83 | 1014.8 |
| 20260508223018 | 55 | 158 | 1.0 | 3.0 | 0.00 | 0.00 | 0.00 | 83 | 1014.8 |
| 20260508222018 | 55 | 158 | 2.0 | 4.0 | 0.00 | 0.00 | 0.00 | 83 | 1014.9 |
| 20260508221018 | 56 | 0.0 | 3.0 | 0.00 | 0.00 | 0.00 | 81 | 1015.0 | |
| 20260508220018 | 56 | 0.0 | 3.0 | 0.00 | 0.00 | 0.00 | 80 | 1014.9 | |
| 20260508215018 | 55 | 158 | 1.0 | 3.0 | 0.00 | 0.00 | 0.00 | 80 | 1014.9 |
| 20260508214018 | 55 | 158 | 1.0 | 3.0 | 0.00 | 0.00 | 0.00 | 80 | 1015.1 |
| 20260508213018 | 55 | 180 | 2.0 | 5.0 | 0.00 | 0.00 | 0.00 | 80 | 1015.1 |
| 20260508212018 | 56 | 180 | 3.0 | 4.0 | 0.00 | 0.00 | 0.00 | 80 | 1015.1 |
| 20260508211018 | 56 | 203 | 2.0 | 4.0 | 0.00 | 0.00 | 0.00 | 80 | 1015.0 |
| 20260508210018 | 56 | 158 | 1.0 | 4.0 | 0.00 | 0.00 | 0.00 | 79 | 1015.0 |
| 20260508205018 | 56 | 0.0 | 2.0 | 0.00 | 0.00 | 0.00 | 80 | 1014.8 | |
| 20260508204018 | 56 | 203 | 1.0 | 2.0 | 0.00 | 0.00 | 0.00 | 81 | 1014.5 |
| 20260508203018 | 56 | 180 | 2.0 | 4.0 | 0.00 | 0.00 | 0.00 | 80 | 1014.5 |
| 20260508202038 | 56 | 180 | 3.0 | 5.0 | 0.00 | 0.00 | 0.00 | 80 | 1014.4 |
| 20260508201018 | 56 | 158 | 3.0 | 5.0 | 0.00 | 0.00 | 0.00 | 79 | 1014.2 |
| 20260508200018 | 56 | 180 | 3.0 | 6.0 | 0.00 | 0.01 | 0.00 | 79 | 1014.1 |
| 20260508195018 | 56 | 203 | 4.0 | 8.0 | 0.00 | 0.02 | 0.00 | 79 | 1014.1 |
| 20260508194018 | 56 | 180 | 5.0 | 8.0 | 0.00 | 0.04 | 0.00 | 78 | 1013.8 |
| 20260508193018 | 57 | 180 | 4.0 | 7.0 | 0.00 | 0.06 | 0.00 | 78 | 1013.7 |
| 20260508192018 | 57 | 180 | 5.0 | 7.0 | 0.00 | 0.12 | 0.00 | 78 | 1013.5 |
| 20260508191018 | 57 | 180 | 5.0 | 9.0 | 0.00 | 0.19 | 0.00 | 78 | 1013.2 |
| 20260508190018 | 57 | 203 | 6.0 | 11.0 | 0.00 | 0.31 | 0.00 | 78 | 1013.1 |
| 20260508185038 | 57 | 203 | 6.0 | 10.0 | 0.00 | 0.39 | 0.00 | 78 | 1013.1 |
| 20260508184018 | 58 | 203 | 7.0 | 11.0 | 0.00 | 0.45 | 0.00 | 77 | 1012.9 |
| 20260508183038 | 58 | 180 | 6.0 | 11.0 | 0.00 | 0.67 | 0.00 | 75 | 1012.8 |
| 20260508182018 | 59 | 180 | 6.0 | 11.0 | 0.00 | 0.73 | 0.00 | 73 | 1012.6 |
| 20260508181018 | 59 | 203 | 6.0 | 10.0 | 0.00 | 0.77 | 0.00 | 71 | 1012.5 |
| 20260508180017 | 60 | 203 | 6.0 | 12.0 | 0.00 | 0.82 | 0.00 | 68 | 1012.4 |
| 20260508175018 | 60 | 203 | 3.0 | 7.0 | 0.00 | 0.85 | 0.00 | 65 | 1012.3 |
| 20260508174018 | 60 | 203 | 5.0 | 9.0 | 0.00 | 0.85 | 0.00 | 64 | 1012.2 |
| 20260508173018 | 60 | 203 | 5.0 | 8.0 | 0.00 | 0.85 | 0.00 | 63 | 1012.1 |
| 20260508172017 | 61 | 203 | 6.0 | 8.0 | 0.00 | 0.85 | 0.00 | 62 | 1012.1 |
| 20260508171018 | 61 | 180 | 4.0 | 6.0 | 0.00 | 0.85 | 0.00 | 62 | 1012.0 |
| 20260508170018 | 61 | 158 | 4.0 | 7.0 | 0.00 | 0.85 | 0.00 | 61 | 1011.9 |
| 20260508165038 | 61 | 180 | 4.0 | 6.0 | 0.00 | 0.85 | 0.00 | 58 | 1012.0 |
| 20260508164017 | 62 | 180 | 4.0 | 7.0 | 0.00 | 0.85 | 0.00 | 59 | 1012.2 |
| 20260508163018 | 62 | 180 | 4.0 | 8.0 | 0.00 | 0.85 | 0.00 | 58 | 1012.0 |
| 20260508162017 | 62 | 180 | 4.0 | 7.0 | 0.00 | 0.85 | 0.00 | 58 | 1012.2 |
| 20260508161037 | 62 | 180 | 4.0 | 7.0 | 0.00 | 0.85 | 0.00 | 58 | 1012.3 |
| 20260508160017 | 62 | 203 | 5.0 | 9.0 | 0.00 | 0.85 | 0.00 | 57 | 1012.3 |
| 20260508155037 | 62 | 180 | 5.0 | 8.0 | 0.00 | 0.85 | 0.00 | 58 | 1012.3 |